Airfield :
LOGIN :

Register | Disclaimer

   EN    FR    IT 

 










Legend :    VFR   Marginal VFR   IFR   Intensive IFR   Very Intensive IFR
Visi :
Ceiling :
>= 8 km
>= 3000ft
5 to 8 km
1000 to 3000 ft
1500m to 5 km
500 to 1000 ft
800 to 1500m
200 to 500 ft
< 800m
< 200 ft
Symbols :   Thunderstorms  Fog  Heavy snow  Heavy precipitations  Wind > 20 kt
SIGMETs :     Misc.  Thunderstorms  Icing  Turbulence  Mountain Waves  Volcanic Ashes







- Airport Elevation : 1046 ft
- IATA code : NUE


EDDN - Nuremberg

CURRENT METAR :
  • 191150Z VRB04KT 9999 FEW040 24/13 Q1016 NOSIG

EXPIRED METARs :
  • 191120Z 36004KT 270V050 9999 FEW035 24/13 Q1016 NOSIG
  • 191050Z VRB02KT 9999 FEW033 23/14 Q1016 NOSIG
  • 191020Z 24002KT CAVOK 22/15 Q1016 NOSIG
  • 190950Z VRB02KT CAVOK 22/15 Q1016 NOSIG
  • 190920Z VRB02KT 9999 FEW035 21/14 Q1016 NOSIG

TAF TAF EDDN
Valid from the 19 at 12:00 until the 20 at 12:00 UTC


191100Z 1912/2012 28006KT CAVOK
BECMG 1917/1919 VRB03KT
BECMG 2004/2006 16005KT
No reported NOTAMs for that airfield.



MET'MAP, your aeronautical weather chart ! - Copyright ORBIFLY December 2007 - Disclaimer

ORBIFLY MET'MAP TEAM :

Programming & Development : Alexandra Zaïnal
Concept & Development : Baudouin d'Aumeries
Co-Development & Prog : Marc-Olivier Méhu
Technical & hardware support : Manuel Goepfert

Contact : metmap@orbifly.com




SOURCES & CREDITS :

   NOAA